#timestamp,LO_Frequency,Hit 
1500318015.8,286047004.8,N
1500318035.7,286047004.7,N
1500318055.5,286047004.9,N
1500318075.3,286047005.5,N
1500318095.2,286047005.7,N
1500318115.0,286047005.3,N
1500318115.9,286047005.3,N
1500318135.7,286047004.5,N
1500318155.6,286047009.2,N
1500318175.4,286047009.2,N
1500318195.3,286047008.6,N
1500318215.1,286047010.7,N
1500318216.0,286047010.7,N
1500318235.8,286047008.9,N
1500318255.7,286047008.8,N
1500318275.5,286047006.6,N
1500318295.3,286047007.6,N
1500318315.2,286047007.5,N
1500318335.0,286047007.1,N
1500318335.9,286047007.1,N
1500318355.8,286047008.6,N
1500318375.6,286047008.0,N
1500318395.4,286047006.6,N
1500318415.3,286047007.4,N
1500318435.1,286047006.7,N
1500318455.8,286047006.3,N
1500318475.7,286047006.1,N
1500318495.5,286047008.3,N
1500318515.4,286047008.0,N
1500318535.2,286047009.2,N
1500318555.0,286047006.5,N
1500318555.9,286047006.5,N
1500318575.8,286047006.9,N
1500318595.6,286047006.1,N
1500318615.4,286047008.1,N
1500318635.3,286047010.3,N
1500318655.1,286047010.4,N
1500318675.9,286047008.3,N
1500318695.7,286047007.8,N
1500318715.5,286047010.7,N
1500318735.4,286047008.3,N
1500318755.2,286047010.5,N
1500318775.0,286047007.7,N
1500318776.0,286047007.7,N
1500318795.8,286047008.7,N
1500318815.6,286047008.9,N
1500318835.5,286047008.9,N
1500318855.3,286047007.9,N
1500318875.1,286047008.6,N
1500318895.9,286047009.0,N
1500318915.7,286047007.9,N
1500318935.5,286047008.6,N
1500318955.4,286047008.9,N
1500318975.2,286047010.7,N
1500318995.1,286047009.9,N
1500318996.0,286047009.9,N
1500319015.8,286047009.8,N
1500319035.6,286047009.6,N
1500319055.5,286047009.7,N
1500319075.3,286047010.5,N
1500319095.1,286047010.6,N
1500319115.9,286047010.2,N
1500319135.7,286047007.9,N
1500319155.6,286047008.7,N
1500319175.4,286047010.6,N
1500319195.2,286047008.6,N
1500319215.1,286047007.1,N
1500319216.0,286047007.1,N
1500319235.8,286047006.5,N
1500319255.6,286047008.6,N
1500319275.5,286047008.5,N
1500319295.3,286047008.6,N
1500319315.2,286047007.9,N
1500319335.9,286047010.4,N
1500319355.7,286047008.0,N
1500319375.6,286047007.7,N
1500319395.4,286047010.5,N
1500319415.2,286047010.6,N
1500319435.1,286047010.3,N
1500319436.0,286047010.3,N
1500319455.8,286047010.6,N
1500319475.7,286047010.4,N
1500319495.5,286047007.7,N
1500319515.3,286047010.1,N
1500319535.2,286047009.7,N
1500319555.0,286047010.1,N
1500319555.9,286047010.1,N
1500319575.7,286047010.0,N
1500319595.6,286047010.3,N
1500319615.4,286047008.2,N
1500319635.3,286047009.6,N
1500319655.1,286047007.9,N
1500319656.0,286047007.9,N
1500319675.8,286047007.9,N
1500319695.7,286047009.9,N
1500319715.5,286047010.5,N
1500319735.3,286047010.0,N
1500319755.2,286047010.6,N
1500319775.0,286047009.5,N
1500319775.9,286047009.5,N
1500319795.8,286047009.5,N
1500319815.6,286047011.9,N
1500319835.4,286047012.1,N
1500319855.3,286047011.6,N
1500319875.1,286047012.1,N
1500319895.8,286047012.4,N
1500319915.7,286047010.0,N
1500319935.5,286047012.2,N
1500319955.4,286047012.0,N
1500319975.2,286047011.8,N
1500319995.0,286047012.1,N
1500319995.9,286047012.1,N
1500320015.8,286047010.6,N
1500320035.6,286047008.5,N
1500320055.5,286047009.9,N
1500320075.3,286047009.9,N
1500320095.1,286047012.4,N
1500320115.9,286047009.4,N
1500320135.7,286047009.3,N
1500320155.5,286047012.0,N
1500320175.4,286047011.3,N
1500320195.2,286047010.0,N
1500320215.0,286047009.9,N
1500320216.0,286047009.9,N
1500320235.8,286047011.7,N
1500320255.6,286047011.3,N
1500320275.5,286047011.4,N
1500320295.3,286047013.5,N
1500320315.1,286047011.5,N
1500320335.9,286047011.4,N
1500320355.7,286047013.5,N
1500320375.6,286047014.0,N
1500320395.4,286047011.6,N
1500320415.2,286047011.4,N
1500320435.1,286047014.0,N
1500320436.0,286047014.0,N
1500320455.8,286047014.0,N
1500320475.6,286047011.2,N
1500320495.5,286047011.1,N
1500320515.3,286047010.9,N
1500320535.2,286047011.4,N
1500320555.9,286047014.0,N
1500320575.7,286047015.3,N
1500320595.6,286047015.2,N
1500320615.4,286047013.4,N
1500320635.2,286047012.9,N
1500320655.1,286047013.3,N
1500320656.0,286047013.3,N
1500320675.8,286047010.9,N
1500320725.7,286047012.9,Y
1500320735.6,286047006.1,N
1500320755.4,286047001.0,N
1500320775.3,286047000.6,N
1500320795.1,286047000.0,N
1500320796.0,286047000.0,N
1500320815.8,286047000.5,N
1500320835.7,286047001.0,N
1500320855.5,286047000.3,N
1500320875.3,286047001.1,N
1500320895.2,286047001.2,N
1500320915.0,286047000.7,N
1500320915.9,286047000.7,N
1500320935.8,286047000.3,N
1500320955.6,286047002.7,N
1500320975.4,286047000.9,N
1500320995.3,286046999.2,N
1500321015.1,286046998.7,N
1500321035.8,286047000.5,N
1500321055.7,286046999.3,N
1500321075.5,286046999.0,N
1500321095.4,286046998.2,N
1500321115.2,286046998.5,N
1500321135.0,286046999.0,N
1500321135.9,286046999.0,N
1500321155.8,286046998.8,N
1500321175.6,286047001.0,N
1500321195.4,286047000.3,N
1500321215.3,286047000.0,N
1500321235.1,286047001.1,N
1500321255.9,286047001.1,N
1500321275.7,286047000.1,N
1500321295.5,286047000.3,N
1500321315.4,286047001.9,N
1500321335.2,286047003.2,N
1500321355.1,286047003.1,N
1500321356.0,286047003.1,N
1500321375.8,286047003.4,N
1500321395.6,286047003.1,N
1500321415.5,286047003.1,N
1500321435.3,286047001.3,N
1500321455.1,286047002.0,N
1500321475.9,286047003.0,N
1500321495.7,286047004.2,N
1500321515.6,286047001.4,N
1500321535.4,286047003.8,N
1500321555.2,286047001.3,N
1500321575.1,286047003.5,N
1500321576.0,286047003.5,N
1500321595.8,286047003.6,N
